Location: Luz Observatory
(34.5000°N, 117.2833°W)
Time: 18:38:56
(UTC-07:00)

Daily predictions for brighter satellites

Satellite Brightness Start Highest point End
(mag) Time Altitude Azimuth Time Altitude Azimuth Time Altitude Azimuth
Cosmos 1190 Rocket 4.1 20:11:47 10° N 20:16:55 58° ENE 20:22:02 10° SSE
CENTAUR R/B 3.5 20:09:29 10° NW 20:17:27 70° WSW 20:25:42 10° SSE
Cosmos 1674 Rocket 4.1 20:14:21 10° N 20:18:34 41° E 20:22:42 10° SSE
PSLV R/B 4.4 20:15:51 10° W 20:18:59 35° SSW 20:22:10 10° SE
CZ-2D R/B 3.3 20:15:59 10° SSE 20:19:45 64° ENE 20:23:31 10° N
SL-08 ROCKET BODY 4.4 20:14:18 10° S 20:20:16 71° E 20:26:10 10° N
Cosmos 2084 4.1 20:26:13 10° SW 20:30:02 54° WNW 20:33:48 10° NNE
Cosmos 1606 3.7 20:27:20 10° NNE 20:30:50 31° E 20:34:20 10° SE
CZ-4 DEB 3.6 20:28:49 10° SE 20:31:42 33° ENE 20:34:36 10° N
Cosmos 1892 4.0 20:28:33 10° SSW 20:32:14 45° W 20:35:58 10° N
Cosmos 2074 Rocket 4.3 20:28:38 10° S 20:34:54 75° W 20:41:11 10° N
USA 186 1.7 20:31:58 10° SSE 20:35:06 85° ENE 20:38:26 10° N
Meteor 1-10 Rocket 4.3 20:33:07 10° N 20:38:54 86° E 20:44:33 10° S
Coronas F rocket 4.2 20:36:56 10° SW 20:39:01 21° W 20:41:07 10° NNW
Resurs 01 Rocket 4.0 20:37:08 10° SSW 20:40:38 23° W 20:44:09 10° NW
Cosmos 1862 3.6 20:37:28 10° SSE 20:41:23 48° E 20:45:19 10° NNE
COS B Rocket 4.2 20:39:08 10° NNE 20:42:15 25° E 20:44:15 15° SE
ALOS 2.7 20:38:17 10° S 20:42:55 65° W 20:47:34 10° NNW
GPS 2-05 Rocket1 3.2 20:39:38 10° W 20:43:23 72° N 20:46:55 11° E
Sich 1 Rocket 3.6 20:38:56 10° S 20:43:30 84° E 20:48:06 10° N
Cosmos 1174 3.1 20:42:55 10° NNW 20:45:58 64° ENE 20:48:06 17° SE
Lacrosse 5 rocket 2.7 20:43:41 10° SSE 20:46:21 17° ESE 20:48:56 10° E
Cosmos 1408 2.8 20:44:17 10° SSE 20:47:48 46° E 20:51:18 10° NNE
OAO 3 Rocket 3.2 20:43:18 10° WSW 20:48:15 69° SSE 20:53:11 10° E
Cosmos 676 Rocket 4.0 20:43:06 10° NNW 20:48:18 67° ENE 20:53:16 11° SSE
H-2A R/B 3.4 20:47:00 10° S 20:50:36 53° W 20:54:16 10° NNW
Cosmos 1954 Rocket 4.2 20:45:35 10° N 20:50:41 53° ENE 20:54:58 15° SE
EO 1 Delta rocket 4.4 20:45:45 10° NNE 20:50:58 42° E 20:55:27 10° SSE
Cosmos 1975 Rocket 4.1 20:47:15 10° NNE 20:50:59 28° ENE 20:53:20 18° SE
SJ-11-01 4.4 20:47:53 10° SSE 20:52:28 58° ENE 20:57:08 10° N
Nadezhda 3 Rocket 4.1 20:50:42 10° N 20:57:01 62° E 21:03:16 10° SSE
ATLAS 5 CENTAUR R/B 3.8 20:51:40 10° NW 20:57:14 36° WSW 21:03:04 10° S
Cosmos 1908 Rocket 3.6 20:52:58 10° S 20:57:21 86° W 21:01:49 10° N
SL-27 R/B 4.3 20:55:41 10° NW 20:58:52 30° W 21:01:59 10° SSW
Cosmos 1378 Rocket 3.6 20:54:41 10° N 20:58:56 57° E 21:02:17 16° SSE
Meteor 1-27 Rocket 3.6 20:58:11 10° N 21:03:44 82° E 21:09:12 10° S
Cosmos 1782 4.0 21:04:04 10° NNW 21:07:55 44° W 21:11:46 10° SSW
Cosmos 1825 2.3 21:08:02 10° S 21:11:49 74° W 21:15:39 10° N
OAO 1 Rocket 4.4 21:08:49 10° W 21:14:09 89° SSE 21:18:18 17° E
Nimbus 7 Rocket 4.4 21:09:37 10° NNE 21:15:34 68° ESE 21:21:32 10° S
Envisat 3.0 21:15:20 21° SSE 21:18:44 70° ENE 21:23:48 10° N
ISS 0.1 21:18:40 10° NW 21:19:42 11° NNW 21:20:44 10° N
SEDSat Delta rocket 3.1 21:15:40 10° WSW 21:20:05 52° S 21:21:31 34° ESE
deb Chang Zheng 4 3.6 21:16:27 10° NNE 21:20:53 89° WNW 21:25:20 10° SSW
Cosmos 614 Rocket 4.4 21:16:17 10° N 21:21:05 42° ENE 21:23:01 29° ESE
BREEZE-M DEB (TANK) 3.3 21:20:38 10° WNW 21:22:49 40° SW 21:24:13 28° SSE
Cosmos 1833 Rocket 3.8 21:20:01 10° N 21:24:53 29° ENE 21:26:48 24° E
Cosmos 2341 Rocket 4.1 21:18:44 10° S 21:25:03 79° W 21:31:20 10° N
H-2A R/B 1.9 21:23:57 29° SSE 21:26:05 79° ENE 21:30:18 10° N
Abrixas 3.8 21:23:52 10° WSW 21:26:47 42° NNW 21:29:41 10° NE
ERS-1 Rocket 3.3 21:23:06 14° S 21:27:26 63° WSW 21:32:27 10° NNW
SL-8 Rocket 4.0 21:22:37 15° S 21:27:49 62° E 21:33:57 10° NNE
Cosmos 1939 Rocket 2.9 21:26:52 25° S 21:28:59 71° W 21:32:55 10° NNW
Cosmos 2278 Rocket 3.6 21:24:14 10° SW 21:29:33 41° WNW 21:34:54 10° N
COSMOS 2487 3.2 21:29:07 10° NNW 21:32:38 49° WSW 21:34:09 28° SSW
Okean 3 3.6 21:28:49 10° NNW 21:33:03 71° W 21:35:22 26° S
Cosmos 2151 Rocket 3.9 21:34:16 41° SE 21:35:07 47° E 21:39:28 10° NNE
Atlas Centaur 2 2.9 21:32:43 10° WSW 21:34:58 17° SSW 21:34:58 17° SSW
Timation 1 Rocket 4.4 21:32:46 14° S 21:37:52 55° ESE 21:43:42 10° NNE
Cosmos 1140 Rocket 3.5 21:33:07 10° NNW 21:38:17 81° WSW 21:40:45 32° S
Cosmos 1238 Rocket 3.8 21:39:21 10° NNW 21:42:50 44° W 21:45:24 20° SSW
SPOT 5 3.0 21:42:02 34° SSE 21:44:27 87° ENE 21:49:50 10° NNW
Timation 2 Rocket 3.8 21:40:28 10° NNW 21:46:27 86° WSW 21:49:05 36° SSE
CZ-4B R/B 3.4 21:42:46 10° NNE 21:47:33 55° E 21:48:15 50° SE
Elektron 3 4.3 21:45:17 10° NNW 21:48:23 75° ENE 21:48:58 61° ESE
Cosmos 2082 Rocket 2.2 21:47:33 10° NNW 21:53:13 66° ENE 21:54:41 48° SE
Lacrosse 5 1.7 21:50:46 10° SSW 21:55:47 65° SE 22:00:51 10° NE
Cosmos 864 Rocket 4.3 21:54:12 36° SSE 21:56:49 72° E 22:02:58 10° N
H-2A R/B 3.1 22:01:28 30° ENE 22:01:38 30° ENE 22:06:12 10° N
CZ-3C R/B 3.4 21:44:13 10° WSW 22:04:31 31° SSW 22:06:05 29° S
MetOp-B 4.3 22:06:23 43° S 22:08:05 69° WSW 22:13:26 10° NNW
Cosmos 2366 rocket 4.0 22:06:49 31° S 22:10:03 83° W 22:16:26 10° N
Meteor 1-18 Rocket 4.3 22:04:09 10° N 22:10:05 71° E 22:11:07 58° SE
NOAA 11 4.1 22:10:17 62° SE 22:11:09 74° ENE 22:16:38 10° N
Cosmos 1242 Rocket 4.3 22:09:26 10° NNW 22:12:38 28° W 22:13:13 27° WSW
SPOT 1/Viking Rocket 3.5 22:16:34 67° S 22:17:17 83° WSW 22:22:32 10° NNW
BREEZE-M DEB (TANK) 2.7 22:09:51 10° NW 22:18:15 78° NE 22:18:15 78° NE
YAOGAN 6 3.9 22:19:45 37° WNW 22:19:45 37° WNW 22:22:30 10° NNW
Lacrosse 5 rocket 2.5 22:21:37 10° WSW 22:25:20 38° NW 22:28:55 10° NNE
SL-08 RB Rocket 3.9 22:31:55 69° NW 22:31:55 69° NW 22:36:05 10° NNW
OAO 3 Rocket 3.5 22:26:52 10° W 22:31:09 66° WNW 22:31:09 66° WNW
ARGOS 3.2 22:32:08 65° SW 22:32:35 68° WSW 22:37:55 10° NNW
Cosmos 2369 Rocket 3.5 22:37:37 27° NE 22:37:37 27° NE 22:40:22 10° NE
Meteor 1-11 Rocket 4.2 22:38:45 48° ENE 22:38:45 48° ENE 22:43:20 10° NNE
CZ-4 R/B 4.3 22:33:50 10° N 22:38:22 55° WNW 22:38:29 55° W
USA 229 DEB 3.8 22:33:38 10° NW 22:40:43 70° WSW 22:41:54 60° SSW
USA 229 3.8 22:33:44 10° NW 22:40:49 71° WSW 22:41:59 60° SSW
Landsat 7 4.3 22:46:06 58° NNW 22:46:06 58° NNW 22:49:57 10° NNW
Gbstr 26 Del rocket 4.4 22:49:11 10° NW 22:52:37 35° N 22:52:37 35° N
NOSS 3-1 (A) 4.4 22:51:39 10° NNW 22:59:08 51° NE 23:00:22 48° E
Cosmos 1943 Rocket 4.4 23:03:11 13° NE 23:03:11 13° NE 23:03:51 10° NE
Terra 2.8 23:02:19 45° NNW 23:02:19 45° NNW 23:05:38 10° NNW
Cosmos 1833 Rocket 3.9 23:03:48 10° NW 23:08:30 32° W 23:08:30 32° W
ATLAS 2AS CENTAUR R/B 4.2 23:12:57 10° NNW 23:19:47 29° NE 23:21:47 26° ENE
Cosmos 1821 Rocket 4.3 23:26:38 64° NW 23:26:38 64° NW 23:32:10 10° N
NOSS 3-1 (C) 3.9 23:19:51 10° NNW 23:27:40 89° WSW 23:27:47 88° S
USA 234 3.3 23:26:07 10° NE 23:32:37 72° NW 23:32:38 72° NW
Cosmos 1934 Rocket 4.4 23:34:09 56° NNW 23:34:09 56° NNW 23:38:59 10° N
Lacrosse 5 4.2 23:35:18 10° W 23:39:08 21° NW 23:42:59 10° NNE
H-2A R/B 3.8 23:42:06 26° WNW 23:42:06 26° WNW 23:45:30 10° NW
